Accueil
METAR-TAF:

METAR-TAF

Aéroports :

RAF

Holbeach, Angleterre

latitude: 52-52N, longitude: 000-09E, altitude: 3 m

Observation

Le bulletin a été fait il y a 2 heures et 42 minutes, à 14:50 UTC
Vent 17 kt de ouest/sud-ouest
Température 22°C
Humidité 53%
Pression 1003 hPa
Visibilité 10 km ou plus
Quelques nuages à une hauteur de 4000 ft

METAR: EGYH 281450Z 25017KT 9999 FEW040 22/12 Q1003 RMK BLU

Heure: 18:32 (17:32 UTC)


TAF: absent

Observations et prévisions météorologiques de plus de 4000 aéroports (messages METAR et TAF).

Les stations disponibles sont représentées par des disques jaunes et rouges sur la carte.

Passer la souris dessus pour voir le nom de la station.

Cliquer dessus pour voir les observations et prévisions météorologiques.

Pour changer de carte: cliquez sur les boutons verts avec une croix noire pour zoomer, sur le bouton vert avec un tiret pour effectuer un zoom arrière, ou sur les flèches vertes pour les cartes adjacentes.


METAR-TAF: